�������l�o���
Date,Time,MP-1(��Sv/h),MP-2(��Sv/h),MP-3(��Sv/h),MP-4(��Sv/h),MP-5(��Sv/h),MP-6(��Sv/h),MP-7(��Sv/h),MP-8(��Sv/h),����,����(m/s),���J
2021/09/26,00:00,0.577,0.860,0.551,1.053,0.752,0.355,0.616,0.581,���쓌,3.6,��
2021/09/26,00:10,0.578,0.860,0.552,1.058,0.751,0.356,0.617,0.581,���쓌,4.2,��
2021/09/26,00:20,0.578,0.860,0.550,1.054,0.751,0.355,0.617,0.580,���쓌,2.6,��
2021/09/26,00:30,0.578,0.862,0.552,1.055,0.750,0.355,0.618,0.579,���쓌,3.3,��
2021/09/26,00:40,0.577,0.861,0.554,1.058,0.748,0.355,0.616,0.580,��,2.2,�L
2021/09/26,00:50,0.580,0.861,0.553,1.057,0.751,0.355,0.617,0.579,���쓌,2.0,��
2021/09/26,01:00,0.578,0.862,0.551,1.054,0.753,0.356,0.617,0.579,���쓌,0.8,��
2021/09/26,01:10,0.578,0.862,0.552,1.057,0.753,0.355,0.617,0.579,��,1.2,�L
2021/09/26,01:20,0.578,0.863,0.553,1.057,0.752,0.357,0.617,0.580,���쓌,1.4,�L
2021/09/26,01:30,0.578,0.862,0.552,1.056,0.752,0.356,0.619,0.581,��쓌,1.5,�L
2021/09/26,01:40,0.580,0.864,0.551,1.056,0.752,0.357,0.617,0.581,��,1.7,�L
2021/09/26,01:50,0.579,0.862,0.552,1.057,0.754,0.356,0.618,0.580,�쐼,1.4,��
2021/09/26,02:00,0.581,0.865,0.553,1.057,0.752,0.357,0.619,0.582,�쓌,1.1,��
2021/09/26,02:10,0.581,0.864,0.552,1.055,0.751,0.358,0.619,0.581,���쓌,2.3,��
2021/09/26,02:20,0.581,0.863,0.552,1.057,0.753,0.356,0.618,0.580,���쓌,3.4,��
2021/09/26,02:30,0.581,0.863,0.552,1.058,0.754,0.355,0.618,0.580,��,3.0,��
2021/09/26,02:40,0.582,0.862,0.553,1.057,0.753,0.357,0.620,0.581,��,2.5,��
2021/09/26,02:50,0.582,0.863,0.552,1.057,0.752,0.356,0.618,0.581,���쓌,4.0,��
2021/09/26,03:00,0.582,0.862,0.553,1.057,0.751,0.355,0.619,0.582,���쓌,3.1,��
2021/09/26,03:10,0.582,0.861,0.551,1.055,0.752,0.356,0.620,0.581,���쓌,3.5,��
2021/09/26,03:20,0.582,0.864,0.552,1.057,0.754,0.357,0.619,0.580,��,2.8,��
2021/09/26,03:30,0.580,0.863,0.552,1.057,0.753,0.357,0.618,0.581,��,1.7,��
2021/09/26,03:40,0.582,0.863,0.552,1.056,0.754,0.355,0.618,0.581,���k��,1.2,��
2021/09/26,03:50,0.579,0.864,0.552,1.057,0.754,0.357,0.619,0.580,���k��,2.3,��
2021/09/26,04:00,0.582,0.864,0.553,1.057,0.754,0.357,0.618,0.580,��,2.3,��
2021/09/26,04:10,0.581,0.862,0.552,1.056,0.753,0.356,0.618,0.580,���쓌,2.3,��
2021/09/26,04:20,0.583,0.862,0.554,1.057,0.754,0.357,0.616,0.582,���쓌,3.2,��
2021/09/26,04:30,0.582,0.865,0.552,1.058,0.751,0.356,0.618,0.582,���쓌,2.6,��
2021/09/26,04:40,0.582,0.864,0.554,1.057,0.754,0.357,0.619,0.581,�쓌,1.5,��
2021/09/26,04:50,0.582,0.864,0.554,1.057,0.752,0.356,0.618,0.581,�쐼,0.6,��
2021/09/26,05:00,0.582,0.865,0.555,1.059,0.753,0.357,0.619,0.579,��,1.2,��
2021/09/26,05:10,0.581,0.863,0.553,1.059,0.754,0.357,0.620,0.582,�쐼,0.6,��
2021/09/26,05:20,0.581,0.864,0.552,1.056,0.752,0.358,0.618,0.582,-,CALM,��
2021/09/26,05:30,0.583,0.865,0.553,1.057,0.754,0.356,0.618,0.581,���쐼,0.6,��
2021/09/26,05:40,0.581,0.863,0.552,1.056,0.754,0.356,0.620,0.584,-,CALM,��
2021/09/26,05:50,0.580,0.863,0.553,1.058,0.754,0.356,0.620,0.582,��,1.7,��
2021/09/26,06:00,0.581,0.864,0.554,1.057,0.755,0.357,0.620,0.582,��,2.6,��
2021/09/26,06:10,0.582,0.865,0.553,1.060,0.752,0.358,0.619,0.582,��,0.6,��
2021/09/26,06:20,0.583,0.862,0.553,1.058,0.755,0.355,0.618,0.581,-,CALM,��
2021/09/26,06:30,0.583,0.862,0.554,1.057,0.753,0.356,0.618,0.582,�쐼,0.6,��
2021/09/26,06:40,0.583,0.864,0.554,1.058,0.752,0.355,0.618,0.581,-,CALM,��
2021/09/26,06:50,0.582,0.865,0.552,1.057,0.754,0.357,0.620,0.583,�쐼,1.4,��
2021/09/26,07:00,0.582,0.863,0.553,1.060,0.753,0.355,0.619,0.583,��,0.9,��
2021/09/26,07:10,0.582,0.865,0.554,1.061,0.752,0.357,0.619,0.581,��,0.6,��
2021/09/26,07:20,0.582,0.864,0.554,1.058,0.753,0.357,0.618,0.584,��,0.6,��
2021/09/26,07:30,0.582,0.864,0.554,1.060,0.754,0.357,0.619,0.580,���k��,0.9,��
2021/09/26,07:40,0.582,0.864,0.554,1.059,0.755,0.355,0.619,0.582,���k��,0.8,��
2021/09/26,07:50,0.582,0.863,0.554,1.059,0.753,0.355,0.618,0.582,���k��,0.9,��
2021/09/26,08:00,0.584,0.863,0.554,1.060,0.753,0.358,0.619,0.581,��,2.6,��
2021/09/26,08:10,0.583,0.864,0.554,1.061,0.755,0.356,0.619,0.581,��,2.9,��
2021/09/26,08:20,0.582,0.866,0.554,1.059,0.753,0.356,0.620,0.582,��,3.5,��
2021/09/26,08:30,0.582,0.865,0.555,1.058,0.755,0.357,0.619,0.581,��,3.2,��
2021/09/26,08:40,0.580,0.865,0.554,1.058,0.754,0.356,0.618,0.582,��,3.3,��
2021/09/26,08:50,0.581,0.865,0.554,1.058,0.754,0.356,0.619,0.580,���쓌,3.0,��
2021/09/26,09:00,0.580,0.865,0.554,1.056,0.754,0.356,0.620,0.581,��,3.0,��
2021/09/26,09:10,0.581,0.863,0.554,1.058,0.752,0.355,0.619,0.582,��,3.5,��
2021/09/26,09:20,0.580,0.860,0.554,1.056,0.755,0.354,0.619,0.580,���쓌,3.2,��
2021/09/26,09:30,0.581,0.864,0.554,1.059,0.754,0.355,0.620,0.580,��,2.8,��
2021/09/26,09:40,0.582,0.862,0.553,1.059,0.754,0.355,0.620,0.580,��,3.5,��
2021/09/26,09:50,0.581,0.863,0.553,1.058,0.753,0.355,0.620,0.579,���쓌,3.2,��
2021/09/26,10:00,0.582,0.861,0.554,1.059,0.753,0.355,0.621,0.580,���쓌,2.2,��
2021/09/26,10:10,0.582,0.863,0.553,1.060,0.755,0.355,0.620,0.580,���쓌,3.3,��
2021/09/26,10:20,0.581,0.864,0.553,1.061,0.754,0.354,0.620,0.580,���쓌,3.6,��
2021/09/26,10:30,0.581,0.864,0.551,1.060,0.755,0.356,0.620,0.579,���쓌,3.0,��
2021/09/26,10:40,0.582,0.867,0.553,1.060,0.753,0.355,0.620,0.580,���쓌,3.0,��
2021/09/26,10:50,0.582,0.866,0.553,1.060,0.755,0.356,0.618,0.580,���쓌,2.8,��
2021/09/26,11:00,0.583,0.868,0.551,1.060,0.754,0.356,0.619,0.579,���쓌,3.6,��
2021/09/26,11:10,0.582,0.865,0.553,1.061,0.754,0.356,0.622,0.581,���쓌,3.1,��
2021/09/26,11:20,0.581,0.866,0.554,1.060,0.756,0.358,0.619,0.579,���쓌,3.5,��
2021/09/26,11:30,0.582,0.869,0.551,1.061,0.756,0.356,0.621,0.580,���쓌,3.6,��
2021/09/26,11:40,0.581,0.868,0.553,1.060,0.757,0.355,0.620,0.579,���쓌,2.2,��
2021/09/26,11:50,0.582,0.868,0.554,1.062,0.756,0.356,0.620,0.581,���쓌,3.7,��
2021/09/26,12:00,0.585,0.868,0.551,1.062,0.756,0.357,0.620,0.580,��,2.3,��
2021/09/26,12:10,0.582,0.867,0.553,1.062,0.754,0.357,0.620,0.581,��,3.1,��
2021/09/26,12:20,0.581,0.870,0.554,1.062,0.755,0.355,0.621,0.580,��,3.6,��
2021/09/26,12:30,0.583,0.870,0.554,1.060,0.756,0.356,0.621,0.579,���쓌,2.9,��
2021/09/26,12:40,0.582,0.868,0.554,1.061,0.757,0.357,0.620,0.581,���쓌,2.6,��
2021/09/26,12:50,0.582,0.868,0.555,1.061,0.756,0.357,0.620,0.579,���쓌,2.5,��
2021/09/26,13:00,0.583,0.869,0.553,1.062,0.757,0.357,0.621,0.580,���쓌,2.2,��
2021/09/26,13:10,0.582,0.870,0.555,1.064,0.757,0.355,0.620,0.581,�쓌,2.3,��
2021/09/26,13:20,0.583,0.871,0.554,1.062,0.758,0.356,0.620,0.580,�쓌,3.3,��
2021/09/26,13:30,0.582,0.871,0.555,1.065,0.756,0.356,0.619,0.580,��쓌,3.1,��
2021/09/26,13:40,0.582,0.872,0.556,1.062,0.759,0.356,0.621,0.581,��쓌,2.5,��
2021/09/26,13:50,0.584,0.871,0.555,1.062,0.757,0.356,0.621,0.580,��쓌,1.2,��
2021/09/26,14:00,0.583,0.873,0.555,1.063,0.759,0.356,0.619,0.579,��쓌,2.0,��
2021/09/26,14:10,0.583,0.872,0.556,1.064,0.759,0.356,0.621,0.579,���쓌,1.2,��
2021/09/26,14:20,0.584,0.870,0.555,1.065,0.757,0.355,0.621,0.580,��,2.5,��
2021/09/26,14:30,0.584,0.872,0.557,1.064,0.758,0.356,0.621,0.582,��쓌,2.0,��
2021/09/26,14:40,0.585,0.874,0.557,1.064,0.758,0.357,0.622,0.580,�쓌,2.2,��
2021/09/26,14:50,0.584,0.871,0.555,1.064,0.756,0.355,0.621,0.582,�쓌,1.7,��
2021/09/26,15:00,0.586,0.873,0.559,1.064,0.756,0.356,0.621,0.581,���쓌,1.7,��
2021/09/26,15:10,0.584,0.872,0.557,1.063,0.757,0.356,0.621,0.582,��,1.2,��
2021/09/26,15:20,0.585,0.874,0.557,1.063,0.758,0.357,0.621,0.582,�쓌,2.0,��
2021/09/26,15:30,0.586,0.876,0.557,1.064,0.757,0.357,0.622,0.582,�쓌,2.3,��
2021/09/26,15:40,0.585,0.873,0.557,1.064,0.759,0.356,0.622,0.581,���쓌,3.0,��
2021/09/26,15:50,0.586,0.875,0.559,1.066,0.757,0.356,0.620,0.581,���쓌,2.3,��
2021/09/26,16:00,0.585,0.874,0.558,1.066,0.758,0.357,0.621,0.581,�쓌,1.7,��
2021/09/26,16:10,0.583,0.872,0.557,1.065,0.757,0.357,0.621,0.580,�쓌,2.5,��
2021/09/26,16:20,0.586,0.871,0.556,1.064,0.756,0.358,0.621,0.581,�쓌,2.0,��
2021/09/26,16:30,0.585,0.872,0.557,1.065,0.759,0.357,0.621,0.581,���쓌,1.4,��
2021/09/26,16:40,0.586,0.875,0.557,1.066,0.758,0.358,0.622,0.582,���쓌,1.1,��
2021/09/26,16:50,0.584,0.874,0.557,1.064,0.759,0.357,0.621,0.581,���쓌,1.5,��
2021/09/26,17:00,0.584,0.877,0.556,1.067,0.758,0.358,0.623,0.582,�쓌,1.4,��
2021/09/26,17:10,0.586,0.875,0.561,1.065,0.760,0.357,0.623,0.582,�쓌,1.1,��
2021/09/26,17:20,0.586,0.874,0.558,1.065,0.759,0.357,0.622,0.583,���쓌,1.5,��
2021/09/26,17:30,0.586,0.873,0.560,1.063,0.760,0.358,0.621,0.584,���쓌,1.1,��
2021/09/26,17:40,0.588,0.874,0.557,1.066,0.761,0.357,0.622,0.582,���쓌,1.5,��
2021/09/26,17:50,0.586,0.874,0.558,1.065,0.760,0.358,0.620,0.583,��,2.0,��
2021/09/26,18:00,0.586,0.875,0.558,1.067,0.763,0.358,0.623,0.584,���k��,1.7,��
2021/09/26,18:10,0.588,0.875,0.558,1.068,0.761,0.358,0.621,0.582,�k�k��,0.6,��
2021/09/26,18:20,0.587,0.875,0.560,1.067,0.761,0.358,0.623,0.584,���쓌,0.6,��
2021/09/26,18:30,0.587,0.875,0.558,1.065,0.761,0.357,0.622,0.585,�k��,1.5,��
2021/09/26,18:40,0.586,0.874,0.559,1.068,0.763,0.359,0.622,0.584,�k��,0.6,��
2021/09/26,18:50,0.587,0.873,0.558,1.067,0.760,0.358,0.621,0.583,�k�k��,1.1,��
2021/09/26,19:00,0.586,0.877,0.559,1.065,0.762,0.360,0.622,0.584,�k,1.9,��
2021/09/26,19:10,0.587,0.876,0.558,1.065,0.761,0.359,0.622,0.584,�k�k��,1.1,��
2021/09/26,19:20,0.586,0.871,0.559,1.066,0.761,0.359,0.621,0.585,�k�k��,2.0,��
2021/09/26,19:30,0.587,0.875,0.559,1.065,0.762,0.358,0.624,0.585,�k,1.1,��
2021/09/26,19:40,0.587,0.872,0.558,1.064,0.762,0.358,0.621,0.583,�k�k��,1.5,��
2021/09/26,19:50,0.587,0.873,0.559,1.067,0.761,0.359,0.622,0.583,�k�k��,1.9,��
2021/09/26,20:00,0.587,0.874,0.559,1.069,0.762,0.359,0.622,0.585,�k��,2.3,��
2021/09/26,20:10,0.587,0.875,0.557,1.065,0.762,0.355,0.622,0.582,�k��,2.3,��
2021/09/26,20:20,0.587,0.875,0.559,1.065,0.761,0.358,0.622,0.584,���k��,1.2,�L
2021/09/26,20:30,0.586,0.874,0.558,1.065,0.761,0.359,0.623,0.583,�k�k��,1.4,�L
2021/09/26,20:40,0.587,0.874,0.557,1.066,0.761,0.359,0.623,0.584,�k��,2.0,�L
2021/09/26,20:50,0.587,0.875,0.559,1.068,0.761,0.358,0.623,0.584,�k��,2.3,�L
2021/09/26,21:00,0.587,0.871,0.560,1.066,0.761,0.357,0.623,0.583,���k��,2.2,��
2021/09/26,21:10,0.587,0.875,0.558,1.066,0.763,0.358,0.624,0.585,�k��,2.3,��
2021/09/26,21:20,0.587,0.873,0.558,1.067,0.762,0.357,0.623,0.584,�k�k��,2.3,��
2021/09/26,21:30,0.587,0.873,0.558,1.070,0.763,0.359,0.622,0.583,�k�k��,2.9,��
2021/09/26,21:40,0.586,0.872,0.557,1.066,0.763,0.360,0.623,0.585,�k�k��,2.6,��
2021/09/26,21:50,0.589,0.874,0.558,1.068,0.762,0.358,0.624,0.584,�k��,2.3,��
2021/09/26,22:00,0.587,0.871,0.559,1.067,0.760,0.359,0.624,0.584,�k��,1.7,��
2021/09/26,22:10,0.587,0.872,0.559,1.066,0.761,0.357,0.622,0.584,�k��,1.7,��
2021/09/26,22:20,0.587,0.874,0.558,1.069,0.762,0.357,0.622,0.584,�k��,1.7,��
2021/09/26,22:30,0.587,0.873,0.559,1.067,0.761,0.357,0.622,0.584,�k��,1.2,��
2021/09/26,22:40,0.586,0.872,0.558,1.069,0.760,0.359,0.622,0.584,�k�k��,1.2,��
2021/09/26,22:50,0.586,0.870,0.558,1.067,0.762,0.359,0.623,0.584,�k�k��,1.9,��
2021/09/26,23:00,0.588,0.873,0.559,1.067,0.762,0.358,0.624,0.583,�k�k��,2.6,��
2021/09/26,23:10,0.587,0.872,0.559,1.068,0.761,0.359,0.623,0.584,�k�k��,2.0,��
2021/09/26,23:20,0.586,0.871,0.559,1.067,0.762,0.358,0.621,0.584,�k�k��,2.2,��
2021/09/26,23:30,0.588,0.874,0.558,1.069,0.762,0.359,0.622,0.585,�k��,3.0,��
2021/09/26,23:40,0.587,0.874,0.558,1.067,0.761,0.359,0.623,0.584,�k�k��,2.2,��
2021/09/26,23:50,0.590,0.871,0.558,1.068,0.762,0.359,0.621,0.586,�k��,2.5,��
